• In Belarus
  • List of Countries
  • For 7 days
  • Water Temperature
  • Weather Map
  • Weather Widgets
  • user-avatar
    Login

    Hourly Weather Tibissa

    Today, 18 August, Sunday

    Time Temperature Precipitation Wind Pressure Humidity
    00:00 +27°C° 0 mm 2 mps 687 mmHg 42%
    01:00 +26°C° 0 mm 2 mps 687 mmHg 47%
    02:00 +26°C° 0 mm 2 mps 687 mmHg 48%
    03:00 +26°C° 0 mm 2 mps 686 mmHg 48%
    04:00 +25°C° 0 mm 2 mps 686 mmHg 49%
    05:00 +26°C° 0 mm 2 mps 686 mmHg 45%
    06:00 +26°C° 0 mm 3 mps 687 mmHg 42%
    07:00 +27°C° 0 mm 3 mps 687 mmHg 39%
    08:00 +29°C° 0 mm 4 mps 687 mmHg 35%
    09:00 +32°C° 0 mm 5 mps 688 mmHg 30%
    10:00 +34°C° 0 mm 5 mps 688 mmHg 25%
    11:00 +35°C° 0 mm 6 mps 688 mmHg 23%
    12:00 +36°C° 0 mm 6 mps 688 mmHg 21%
    13:00 +38°C° 0 mm 6 mps 688 mmHg 20%
    14:00 +37°C° 0 mm 5 mps 687 mmHg 19%
    15:00 +37°C° 0 mm 5 mps 687 mmHg 18%
    16:00 +37°C° 0 mm 5 mps 686 mmHg 18%
    17:00 +37°C° 0 mm 5 mps 686 mmHg 19%
    18:00 +36°C° 0 mm 5 mps 686 mmHg 20%
    19:00 +35°C° 0 mm 5 mps 686 mmHg 22%
    20:00 +34°C° 0 mm 4 mps 686 mmHg 25%
    21:00 +31°C° 0 mm 3 mps 686 mmHg 28%
    22:00 +30°C° 0 mm 3 mps 686 mmHg 31%
    23:00 +30°C° 0 mm 3 mps 686 mmHg 33%

    Tomorrow, 19 August, Monday

    Time Temperature Precipitation Wind Pressure Humidity
    00:00 +29°C° 0 mm 3 mps 686 mmHg 34%
    01:00 +28°C° 0 mm 3 mps 686 mmHg 35%
    02:00 +28°C° 0 mm 3 mps 685 mmHg 35%
    03:00 +27°C° 0 mm 3 mps 685 mmHg 35%
    04:00 +27°C° 0 mm 2 mps 685 mmHg 35%
    05:00 +28°C° 0 mm 2 mps 685 mmHg 34%
    06:00 +28°C° 0 mm 2 mps 686 mmHg 32%
    07:00 +29°C° 0 mm 2 mps 686 mmHg 31%
    08:00 +30°C° 0 mm 3 mps 686 mmHg 28%
    09:00 +33°C° 0 mm 4 mps 687 mmHg 25%
    10:00 +35°C° 0 mm 4 mps 687 mmHg 21%
    11:00 +36°C° 0 mm 4 mps 687 mmHg 19%
    12:00 +37°C° 0 mm 5 mps 687 mmHg 17%
    13:00 +39°C° 0 mm 5 mps 687 mmHg 16%
    14:00 +39°C° 0 mm 5 mps 687 mmHg 16%
    15:00 +39°C° 0 mm 5 mps 686 mmHg 16%
    16:00 +39°C° 0 mm 5 mps 686 mmHg 16%
    17:00 +37°C° 0 mm 5 mps 686 mmHg 18%
    18:00 +36°C° 0 mm 6 mps 686 mmHg 20%
    19:00 +35°C° 0 mm 6 mps 686 mmHg 21%
    20:00 +34°C° 0 mm 5 mps 686 mmHg 27%
    21:00 +32°C° 0 mm 4 mps 687 mmHg 33%
    22:00 +30°C° 0 mm 3 mps 687 mmHg 38%
    23:00 +29°C° 0 mm 3 mps 687 mmHg 42%

    Day after tomorrow, 20 August, Tuesday

    Time Temperature Precipitation Wind Pressure Humidity
    00:00 +28°C° 0 mm 2 mps 686 mmHg 46%
    01:00 +27°C° 0 mm 1 mps 686 mmHg 50%
    02:00 +26°C° 0 mm 1 mps 686 mmHg 51%
    03:00 +26°C° 0 mm 1 mps 686 mmHg 52%
    04:00 +25°C° 0 mm 2 mps 685 mmHg 53%
    05:00 +25°C° 0 mm 2 mps 685 mmHg 51%
    06:00 +26°C° 0 mm 2 mps 686 mmHg 50%
    07:00 +26°C° 0 mm 2 mps 686 mmHg 48%
    08:00 +28°C° 0 mm 2 mps 686 mmHg 41%
    09:00 +30°C° 0 mm 3 mps 687 mmHg 35%
    10:00 +33°C° 0 mm 4 mps 687 mmHg 28%
    11:00 +34°C° 0 mm 4 mps 687 mmHg 25%
    12:00 +36°C° 0 mm 4 mps 687 mmHg 22%
    13:00 +37°C° 0 mm 5 mps 687 mmHg 19%
    14:00 +37°C° 0 mm 5 mps 687 mmHg 18%
    15:00 +37°C° 0 mm 4 mps 687 mmHg 17%
    16:00 +38°C° 0 mm 4 mps 687 mmHg 16%
    17:00 +37°C° 0 mm 4 mps 687 mmHg 19%
    18:00 +35°C° 0 mm 5 mps 686 mmHg 21%
    19:00 +34°C° 0 mm 5 mps 686 mmHg 24%
    20:00 +33°C° 0 mm 3 mps 687 mmHg 30%
    21:00 +30°C° 0 mm 2 mps 687 mmHg 36%
    22:00 +28°C° 0 mm 1 mps 687 mmHg 41%
    23:00 +27°C° 0 mm 1 mps 687 mmHg 43%

    21 August, Wednesday

    Time Temperature Precipitation Wind Pressure Humidity
    00:00 +27°C° 0 mm 1 mps 687 mmHg 45%
    01:00 +26°C° 0 mm 1 mps 687 mmHg 47%
    02:00 +25°C° 0 mm 1 mps 687 mmHg 47%
    03:00 +25°C° 0 mm 1 mps 686 mmHg 48%
    04:00 +24°C° 0 mm 1 mps 686 mmHg 48%
    05:00 +25°C° 0 mm 1 mps 687 mmHg 47%
    06:00 +25°C° 0 mm 1 mps 687 mmHg 45%
    07:00 +26°C° 0 mm 1 mps 687 mmHg 43%
    08:00 +27°C° 0 mm 1 mps 688 mmHg 38%
    09:00 +29°C° 0 mm 1 mps 688 mmHg 33%
    10:00 +30°C° 0 mm 2 mps 688 mmHg 28%
    11:00 +32°C° 0 mm 2 mps 688 mmHg 25%
    12:00 +34°C° 0 mm 2 mps 688 mmHg 23%
    13:00 +35°C° 0 mm 2 mps 688 mmHg 20%
    14:00 +35°C° 0 mm 3 mps 688 mmHg 20%
    15:00 +36°C° 0 mm 3 mps 688 mmHg 20%
    16:00 +36°C° 0 mm 4 mps 687 mmHg 20%
    17:00 +35°C° 0 mm 4 mps 687 mmHg 22%
    18:00 +34°C° 0 mm 4 mps 687 mmHg 24%
    19:00 +33°C° 0 mm 4 mps 687 mmHg 25%
    20:00 +32°C° 0 mm 4 mps 688 mmHg 34%
    21:00 +29°C° 0 mm 4 mps 688 mmHg 43%
    22:00 +27°C° 0 mm 4 mps 688 mmHg 52%
    23:00 +27°C° 0 mm 3 mps 688 mmHg 54%

    22 August, Thursday

    Time Temperature Precipitation Wind Pressure Humidity
    00:00 +26°C° 0 mm 2 mps 688 mmHg 57%
    01:00 +26°C° 0 mm 1 mps 687 mmHg 59%
    02:00 +25°C° 0 mm 1 mps 687 mmHg 61%
    03:00 +24°C° 0 mm 1 mps 687 mmHg 63%
    04:00 +24°C° 0 mm 1 mps 687 mmHg 64%
    05:00 +24°C° 0 mm 1 mps 687 mmHg 62%
    06:00 +25°C° 0 mm 1 mps 687 mmHg 59%
    07:00 +25°C° 0 mm 1 mps 687 mmHg 56%
    08:00 +27°C° 0 mm 1 mps 688 mmHg 49%
    09:00 +29°C° 0 mm 2 mps 688 mmHg 41%
    10:00 +31°C° 0 mm 2 mps 689 mmHg 34%
    11:00 +32°C° 0 mm 2 mps 689 mmHg 32%
    12:00 +34°C° 0 mm 3 mps 689 mmHg 30%
    13:00 +35°C° 0 mm 3 mps 688 mmHg 27%
    14:00 +35°C° 0 mm 3 mps 688 mmHg 28%
    15:00 +34°C° 0 mm 2 mps 687 mmHg 29%
    16:00 +34°C° 0 mm 2 mps 687 mmHg 29%
    17:00 +31°C° 0.4 mm 2 mps 687 mmHg 35%
    18:00 +30°C° 0.4 mm 2 mps 687 mmHg 41%
    19:00 +28°C° 0.4 mm 1 mps 687 mmHg 47%
    20:00 +28°C° 0.1 mm 2 mps 687 mmHg 50%
    21:00 +27°C° 0.1 mm 2 mps 687 mmHg 53%
    22:00 +27°C° 0.1 mm 2 mps 688 mmHg 56%
    23:00 +26°C° 0 mm 2 mps 687 mmHg 59%

    23 August, Friday

    Time Temperature Precipitation Wind Pressure Humidity
    00:00 +26°C° 0 mm 1 mps 687 mmHg 62%
    01:00 +25°C° 0 mm 1 mps 687 mmHg 65%
    02:00 +25°C° 0 mm 1 mps 687 mmHg 66%
    03:00 +24°C° 0 mm 1 mps 686 mmHg 66%
    04:00 +24°C° 0 mm 1 mps 686 mmHg 66%
    05:00 +24°C° 0 mm 1 mps 686 mmHg 62%
    06:00 +24°C° 0 mm 1 mps 687 mmHg 58%
    07:00 +25°C° 0 mm 2 mps 687 mmHg 54%
    08:00 +27°C° 0.4 mm 2 mps 687 mmHg 47%
    09:00 +29°C° 0.4 mm 3 mps 688 mmHg 40%
    10:00 +30°C° 0.4 mm 4 mps 688 mmHg 33%
    11:00 +33°C° 0 mm 5 mps 688 mmHg 30%
    12:00 +34°C° 0 mm 6 mps 688 mmHg 27%
    13:00 +35°C° 0 mm 6 mps 688 mmHg 23%
    14:00 +35°C° 0 mm 6 mps 688 mmHg 23%
    15:00 +35°C° 0 mm 6 mps 687 mmHg 23%
    16:00 +35°C° 0 mm 6 mps 687 mmHg 23%
    17:00 +34°C° 0.1 mm 6 mps 686 mmHg 28%
    18:00 +32°C° 0.1 mm 5 mps 686 mmHg 33%
    19:00 +30°C° 0.1 mm 4 mps 686 mmHg 37%
    20:00 +29°C° 0 mm 3 mps 686 mmHg 42%
    21:00 +28°C° 0 mm 3 mps 686 mmHg 47%
    22:00 +27°C° 0 mm 2 mps 686 mmHg 51%
    23:00 +26°C° 0 mm 2 mps 686 mmHg 54%
    Show more